Regional Weather Roundup
Issued by NWS

Home | Current Version | Previous Version | Graphics & Text | Print | Product List | Glossary On
Versions: 1 2 3 4 5 6 7 8 9 10 11 12 13 14 15 16 17 18 19 20 21 22 23 24 25 26 27 28 29 30 31 32 33 34 35 36 37 38 39 40 41 42 43 44 45 46 47 48 49 50
000
ASUS43 KOAX 222210
RWRNE

WEATHER ROUNDUP FOR NEBRASKA
NATIONAL WEATHER SERVICE OMAHA NE
500 PM CDT TUE MAY 22 2018

NOTES: SATELLITE DATA IS BEING USED TO AUGMENT CLOUD COVER ABOVE
       12000 FEET.
       "FAIR" INDICATES FEW OR NO CLOUDS BELOW 12,000 FEET WITH NO
       SIGNIFICANT WEATHER AND/OR OBSTRUCTIONS TO VISIBILITY.


NEZ001>004-019>022-054>056-222300-
NEBRASKA PANHANDLE

CITY           SKY/WX    TMP DP  RH WIND       PRES   REMARKS
SCOTTSBLUFF    MOSUNNY   80  54  40 SE20G26   29.87F
ALLIANCE       MOSUNNY   78  52  40 S24       29.90F
CHADRON        PTSUNNY   76  55  48 E23G33    29.86R THUNDER
GORDON         MOCLDY    80  58  46 SE10G22   29.89F
KIMBALL        MOSUNNY   75  53  46 SE17      29.93F
SIDNEY         MOSUNNY   77  53  43 SE17G25   29.91F
$$

NEZ057>060-069>072-079>082-222300-
SOUTHWEST NEBRASKA

CITY           SKY/WX    TMP DP  RH WIND       PRES   REMARKS
NORTH PLATTE   PTSUNNY   83  62  49 SE12      29.89F
IMPERIAL       CLOUDY    80  52  37 S14G28    29.88F
LEXINGTON      PTSUNNY   83  60  45 S14       29.90F
MCCOOK         CLOUDY    83  56  39 S18G29    29.87F
OGALLALA       CLOUDY    81  56  42 SE15G25   29.89F
$$

NEZ005>010-023>029-035>040-094-222300-
NORTH CENTRAL NEBRASKA

CITY           SKY/WX    TMP DP  RH WIND       PRES   REMARKS
VALENTINE      PTSUNNY   84  63  49 SE15      29.90F
AINSWORTH      CLOUDY    81  65  58 SE10      29.92S
BROKEN BOW     CLOUDY    80  63  55 SE12G20   29.92F
O`NEILL        CLOUDY    83  66  55 SE8       29.92S
ORD            CLOUDY    83  61  47 S13       29.90F
THEDFORD       CLOUDY    83  55  37 S13       29.92F
$$

NEZ041-046>049-061>064-073>077-083>087-222300-
SOUTH CENTRAL NEBRASKA

CITY           SKY/WX    TMP DP  RH WIND       PRES   REMARKS
GRAND ISLAND   SUNNY     87  63  44 S10G21    29.91F
AURORA         MOSUNNY   87  58  37 S12       29.91F
HASTINGS       SUNNY     87  62  43 S12       29.92F
HEBRON         MOSUNNY   90  59  34 SE17      29.92F
HOLDREGE       MOSUNNY   84  57  38 S20       29.91F
KEARNEY        MOSUNNY   85  60  42 S15G23    29.91F
YORK           SUNNY     86  64  48 S15G21    29.91F
$$

NEZ011>018-030>034-042>045-222300-
NORTHEAST NEBRASKA

CITY           SKY/WX    TMP DP  RH WIND       PRES   REMARKS
NORFOLK        CLOUDY    85  60  42 S15       29.88F
ALBION         CLOUDY    83  65  53 S14       29.92S
BLAIR          PTSUNNY   81  66  60 SE15      29.95S
COLUMBUS       PTSUNNY   87  64  46 S16       29.91S
FREMONT        CLOUDY    84  67  56 SE16      29.93S
TEKAMAH        CLOUDY    79  68  69 S20       29.93F
WAYNE          CLOUDY    81  74  81 S18       29.91F
$$

NEZ050>053-065>068-078-088>093-222300-
SOUTHEAST NEBRASKA

CITY           SKY/WX    TMP DP  RH WIND       PRES   REMARKS
LINCOLN        MOSUNNY   88  62  41 S15G25    29.92S
OMAHA EPPLEY   PTSUNNY   83  64  52 SE14G26   29.94F
BEATRICE       SUNNY     88  62  42 S13G22    29.93F
FALLS CITY     MOSUNNY   86  62  44 S14G26    29.94S
NEBRASKA CITY  MOSUNNY   85  64  47 SE13G18   29.94F
PLATTSMOUTH    CLOUDY    82  67  60 SE10      29.96S
$$

NEZ044-045-051>053-067-222300-
OMAHA AREA

CITY           SKY/WX    TMP DP  RH WIND       PRES   REMARKS
OMAHA EPPLEY   PTSUNNY   83  64  52 SE14G26   29.94F
BLAIR          PTSUNNY   81  66  60 SE15      29.95S
FREMONT        CLOUDY    84  67  56 SE16      29.93S
MILLARD        CLOUDY    84  68  59 SE13G21   29.94S
OFFUTT AFB     PTSUNNY   83  65  55 SE14      29.94S
PLATTSMOUTH    CLOUDY    82  67  60 SE10      29.96S
WAHOO          FAIR      87  58  38 S15G25    29.92F
$$




USA.gov is the U.S. government's official web portal to all federal, state and local government web resources and services.